INTELSAT 33E DEB, 61992

Orbit data source: Space-Track

INTELSAT 33E DEB, 61992 is space debris in GEO originally from a launch on Wed, 24 Aug 2016 UTC launched from the French Guiana (FRGUI). Debris objects in space refer to the collection of defunct objects orbiting the Earth. Examples of debris include non-operational satellites, rocket bodies, and fragments generated from explosions, collisions, or faulty payload assembly.

Loading next visibility...
INTELSAT 33E DEB details
Identifier
61992, 2016-053J
Orbit
GEO
Last TLE update1 day ago
Origin
Flag of USIntelsat SA (US) (US / ITSO)
ManufacturerBoeing/ES
MissionSpacecraft
Bus & MotorUnknown
MassUnknown
Launch date (UTC)
2016-08-24 (8 years ago)
Launch vehicleUnknown
Launch site
French Guiana (FRGUI)
Object type
Payload
Rocket body
Debris
Shape & HBRUnknown
Radar Cross SectionRCS unknown

Expand to show TLE details & history

TLE from 1 day ago
0 INTELSAT 33E DEB
1 61992U 16053J   25043.82230380 -.00000276  00000-0  00000-0 0  9998
2 61992   0.3020  94.3706 0055074 249.9625  15.4554  1.00799785  1170
Epoch: 2025-02-12T19:44Z
Definitive object data (Epoch: 2025-02-12T19:44:07.048Z)
Latitude-0.3255°
Longitude-79.13671°
Altitude35,415.23 km
Speed3.097 km/s
True Right ascension23h 59m 59s
True Declination0° 19' 31"
Sunlit
Object was in daylight at TLE epoch
Visualization TLE readout
Latitude-0.32828°
Longitude-74.76308°
Altitude35,420.657 km
Speed3.096 km/s
Apparent Right ascension00h 31m 30s
Apparent Declination-6° 32' 58"
Sunlit
Object is in daylight
Visualization observer readout
Local Sidereal Time22:25:45
Azimuth140.625° SSE
Elevation35.235°
Doppler factor1
Orbital elements
Apogee altitude35,871.71 km
Perigee altitude35,408.886 km
Semi-major axis42,018.435 km
Eccentricity0.0055074
Inclination0.302°
RAAN94.3706°
Arg. of periapsis249.9625°
True anomaly15.6247°
Mean anomaly15.4554°
Eccentric anomaly15.53994°
Mean motion0.25199 °/min
BSTARUnknown
Orbital period1428.63 mins
Loading historical data...
61992 neighbors
Authenticating...
Loading maneuver chart data...
Loading historical data...
Loading historical data...
Loading historical data...
Loading historical data...
Loading historical data...
Loading historical data...
Loading historical data...

INTELSAT 33E DEB Visibility forecast

Observer location: undefined°, undefined

Span
Click to sort rows by Start time (UTC) header in descending order
Start Az.
Max El. time (UTC)
Max El. Az.
Max El.
End time (UTC)
End Az.
1440 mins2025-02-13 19:49:50.847Z140.637° SSE2025-02-14 09:11:50.847Z139.721° SSE30.254°2025-02-14 19:49:50.847Z138.393° SSE
|